Regional Weather Roundup
Issued by NWS Green Bay, WI

Home | Current Version | Previous Version | Text Only | Print | Product List | Glossary On
Versions: 1 2 3 4 5 6 7 8 9 10 11 12 13 14 15 16 17 18 19 20 21 22 23 24 25 26 27 28 29 30 31 32 33 34 35 36 37 38 39 40 41 42 43 44 45 46 47 48 49 50
533
ASUS43 KGRB 271011
RWRGRB

NORTH-CENTRAL AND NORTHEAST WISCONSIN REGIONAL WEATHER ROUNDUP
NATIONAL WEATHER SERVICE GREEN BAY WI
500 AM CDT FRI MAY 27 2016

WIZ005-009-010>012-018-019-271100-
NORTH CENTRAL WISCONSIN

CITY           SKY/WX    TMP DP  RH WIND       PRES   REMARKS
IRONWOOD       PTCLDY    50  48  93 E5        29.85
MANITOWISH WTR NOT AVBL
ARBOR VITAE    PTCLDY    52  51  96 CALM      29.90R FOG
EAGLE RIVER    FOG       50  50 100 CALM      29.90R VSB 1/4
LAND O LAKES   PTCLDY    50  50 100 CALM      29.91R FOG
RHINELANDER    FOG       51  50  96 CALM      29.90S VSB 1/4
PHILLIPS       CLOUDY    51  51 100 N3        29.88S
ANTIGO         CLOUDY    52  52 100 CALM      29.91S
TOMAHAWK       PTCLDY    49  48  97 CALM      29.90S
MERRILL        FOG       50  50 100 CALM      29.90S VSB 1
$$

WIZ013-073-271100-
NORTHEAST WISCONSIN

CITY           SKY/WX    TMP DP  RH WIND       PRES   REMARKS
IRON MOUNTAIN  FOG       57  56  96 CALM      29.88R VSB 1/4
MARINETTE      FOG       52  52 100 CALM      29.89F VSB 1/2
OCONTO         PTCLDY   N/A N/A N/A CALM      29.88S
$$

WIZ017-030-035>037-045-271100-
CENTRAL WISCONSIN

CITY           SKY/WX    TMP DP  RH WIND       PRES   REMARKS
MEDFORD        CLEAR     55  55 100 CALM      29.88S
WAUSAU         CLOUDY    57  55  93 CALM      29.88R FOG
MOSINEE        CLOUDY    55  55 100 E3        29.90R
MARSHFIELD     CLOUDY    58  55  90 NE5       29.87S
WISC RAPIDS    CLOUDY    57  55  93 NE3       29.88F
STEVENS POINT  PTCLDY    53  53  99 CALM      29.89S
WAUPACA        CLEAR     58  58  99 CALM      29.89R
SHAWANO        PTCLDY    59  57  94 CALM      29.89S FOG
CLINTONVILLE   FOG       54  54 100 CALM      29.88S VSB 1/2
WAUTOMA        CLOUDY    56  56 100 CALM      29.89R
$$

WIZ038-039-048-051-271100-
FOX VALLEY

CITY           SKY/WX    TMP DP  RH WIND       PRES   REMARKS
NWS GREEN BAY  CLEAR     58  56  93 CALM      29.88S FOG
APPLETON       CLEAR     61  54  77 CALM      29.87S
OSHKOSH        PTCLDY    59  56  89 CALM      29.87F
FOND DU LAC    CLOUDY    58  56  93 CALM      29.88S
$$

WIZ022-050-052-271100-
EAST CENTRAL WISCONSIN

CITY           SKY/WX    TMP DP  RH WIND       PRES   REMARKS
EPHRAIM        FAIR      63  56  80 S5        29.88S
STURGEON BAY   NOT AVBL
MANITOWOC      PTCLDY    54  51  90 CALM      29.89S
SHEBOYGAN      CLEAR     57  55  93 CALM      29.88S
$$

LMZ563-521-522-541>543-271100-
LAKESHORE

STATION/POSITION TIME  TEMP    WIND        PRES    VSBY  WAVE
                       AIR SEA DIR/SP/G                  HT/PER
                 (UTC) (F)     (DEG/KT/KT) (MB)    (MI)  (FT/S)
SHEBOYGAN LKSHOR 1000   54     170/  4/  5 1012.2R
KEWAUNEE LKSHORE 0900           40/  1/  2 1011.4R
ALGOMA MARINA    0917             CALM       N/A
NORTHPORT PIER   0900   51     140/  3/  4 1012.2R
N MID LAKE BUOY  0950   47 45  160/  4/  4 1012.4S         1/ 4
SISTER BAY LKSHO 0919   56        CALM       N/A
CHAMBERS ISLAND  0900   55      CALM  /  2 1012.2R
MENOMINEE LKSHOR 0900   58     360/  3/  4 1011.0R
$$




USA.gov is the U.S. government's official web portal to all federal, state and local government web resources and services.